Location: Presov
(49.0000°N, 21.2500°E)
Time: 23:59:37
(UTC+02:00)

ISS - Pass Details

Date: 25 March 2019
Orbit: 408 x 410 km, 51.6° (Epoch: 24 April)

Event Time Altitude Azimuth Distance (km) Brightness Sun altitude
Rises 18:37:48 0° 232° (SW) 2,328 0.7 -7.8°
Reaches altitude 10° 18:39:55 10° 227° (SW) 1,469 -0.5 -8.1°
Maximum altitude 18:43:07 50° 151° (SSE) 531 -3.5 -8.7°
Enters shadow 18:46:15 10° 75° (ENE) 1,449 -1.6 -9.2°
